Dewpoint
55 55 54 55 55 55 55 54 54 55 55 55 55 55 56 56 56 56 56 56 56 56 56 56 56 57 56 56 55 55 57 54 50 47 46 40 49 53 61 61 63 65 71 64 62 56 51 53 62 66 64 63 63 62 64 65 66 65 61 57 54 55 54 56 58 62 63 61 63 64 64 63 62 65 66 65 64 64 63 61 62 62 62 63 65 66 66 66
55 54 54 55 55 54 54 54 54 55 55 55 55 55 56 56 56 56 56 56 56 56 56 56 56 57 57 57 56 57 55 53 49 48 46 50 55 59 64 63 64 65 68 60 52 47 46 50 61 65 63 61 63 62 65 62 65 63 58 57 53 56 55 59 60 61 61 61 65 64 65 64 63 64 65 62 62 63 62 62 61 62 64 65 66 66 66 66
54 54 54 55 54 54 54 54 54 54 54 55 55 55 55 56 56 56 56 56 56 56 56 56 56 57 57 57 56 59 54 51 52 51 50 63 58 57 64 65 67 68 61 57 50 45 41 51 62 63 62 59 62 61 63 61 63 62 58 55 57 58 58 59 59 62 61 65 64 64 65 64 64 62 65 62 61 62 61 59 60 61 62 63 65 65 65 66
54 54 55 54 54 54 54 54 54 55 54 54 55 55 55 55 55 55 55 55 56 55 56 56 56 57 58 57 58 57 55 51 44 45 52 67 62 59 64 68 65 67 57 54 47 42 50 56 62 62 58 58 60 60 60 60 60 62 59 56 57 58 57 56 64 63 65 64 66 65 65 64 64 64 65 62 60 61 61 60 60 61 61 63 64 64 65 65
53 54 55 54 54 54 54 54 54 55 54 54 55 55 55 55 55 55 55 55 55 55 56 56 57 57 58 59 58 56 51 37 33 47 60 66 63 62 66 66 66 59 53 46 44 48 53 56 57 54 56 55 58 58 56 59 61 58 59 59 60 60 57 57 62 64 63 65 66 65 63 63 64 64 65 62 60 59 60 61 61 62 62 62 63 64 65 65
54 54 54 54 54 54 54 54 54 54 54 54 54 55 55 55 55 55 55 55 55 55 56 56 57 57 59 58 55 55 46 27 40 45 69 66 65 66 69 68 63 49 45 43 43 50 51 51 49 49 52 53 56 56 56 57 58 54 54 55 55 56 57 58 60 63 63 64 64 64 64 65 63 62 63 62 62 63 62 62 62 63 63 63 63 64 65 64
55 54 54 54 54 54 54 54 54 54 54 54 54 54 54 55 55 55 55 55 55 55 56 56 57 58 60 58 55 49 41 38 44 63 69 66 67 70 69 63 60 44 42 42 46 48 48 48 43 46 51 52 54 57 52 54 55 55 52 53 52 53 53 56 55 63 63 64 64 65 66 64 62 61 65 63 63 63 64 62 63 64 64 64 63 64 64 64
54 54 54 54 54 54 54 54 54 54 54 54 54 54 54 55 55 55 55 55 55 56 56 56 57 58 58 52 47 38 37 34 42 65 68 66 64 67 66 45 43 41 39 41 43 45 48 45 40 50 48 50 53 54 52 51 52 52 52 53 52 52 52 52 55 62 63 63 65 65 63 63 63 64 64 63 63 63 63 63 63 64 64 64 64 64 65 65
54 54 54 54 54 54 54 54 54 54 54 54 54 54 54 55 54 55 55 55 55 56 56 56 57 58 60 52 39 33 29 40 46 63 59 59 61 59 53 41 38 40 37 40 42 46 45 45 46 46 46 52 50 53 51 47 48 51 51 50 49 47 45 49 56 62 63 64 64 63 63 65 64 66 63 63 63 62 62 62 63 63 63 63 64 64 65 65
54 54 54 53 54 53 53 54 53 54 54 54 54 54 54 54 54 55 55 55 56 56 56 57 57 58 56 50 41 30 33 64 66 61 57 61 57 54 51 42 37 36 36 36 40 46 42 46 47 50 50 49 47 47 44 44 45 46 44 42 40 37 45 49 56 62 63 64 65 63 63 64 64 63 60 63 62 62 64 63 63 62 62 62 63 64 65 65
54 53 54 54 53 53 53 53 54 54 54 54 54 54 54 54 54 55 55 55 55 56 56 57 58 58 50 49 34 29 34 60 64 57 60 60 57 51 48 40 35 35 34 33 39 44 42 46 46 45 48 47 44 44 41 40 39 38 38 37 36 56 57 56 59 62 63 64 63 62 63 63 63 63 61 62 63 62 62 62 62 62 62 62 63 64 65 65
53 53 53 53 53 53 53 53 54 54 54 54 54 54 54 54 54 54 55 55 56 56 57 58 58 56 51 44 38 31 41 59 60 57 59 56 55 52 47 39 36 34 32 32 33 37 41 45 42 44 42 42 43 41 40 38 37 38 38 36 35 56 57 60 60 62 62 62 63 62 61 60 62 60 61 62 63 62 62 62 62 62 62 62 63 64 65 66
53 53 53 53 53 53 53 54 54 54 54 54 54 54 54 54 54 54 55 55 56 56 57 58 59 55 51 41 37 40 52 62 59 57 55 52 51 53 51 42 38 37 33 30 30 33 34 40 39 44 38 38 40 40 37 37 38 38 36 34 33 43 54 60 61 62 61 62 62 60 53 56 60 61 61 62 62 62 61 61 62 61 61 62 63 64 64 65
53 53 53 53 53 53 53 54 54 54 53 54 54 53 54 54 55 54 55 55 56 57 58 59 57 53 48 40 41 45 44 61 58 54 53 53 50 53 53 47 43 41 39 37 36 33 31 31 34 37 37 39 40 37 38 39 35 37 31 29 33 36 38 59 60 61 59 62 62 60 53 52 57 61 61 62 62 61 61 61 61 61 61 62 63 63 64 65
53 53 53 53 53 53 53 54 54 54 53 54 53 53 54 54 56 56 56 56 56 58 59 60 56 52 47 43 46 49 60 61 54 54 55 50 51 51 52 50 45 43 40 37 38 36 30 30 32 37 41 37 37 38 39 39 35 31 35 35 27 30 40 58 60 60 57 61 61 58 53 52 54 59 61 62 62 61 61 61 61 61 61 62 62 62 63 63
54 54 53 53 53 54 54 54 54 53 54 53 53 53 54 57 57 57 57 56 58 60 59 53 52 51 45 38 50 61 45 40 44 56 57 51 48 48 52 50 46 44 41 40 36 35 31 29 35 38 40 39 38 39 39 38 36 32 32 29 28 25 39 55 58 60 60 60 61 58 53 54 56 59 61 62 61 60 61 62 61 61 61 62 62 62 62 63
54 54 54 53 53 53 54 53 54 53 53 53 52 53 55 59 58 58 58 59 58 59 56 50 52 52 33 39 46 43 35 36 40 58 59 56 48 52 50 48 46 43 42 39 40 32 30 29 28 39 38 38 38 39 39 38 36 33 29 29 24 26 50 46 58 59 60 59 59 59 57 54 55 59 61 62 61 60 60 61 61 61 61 62 62 62 62 63
53 53 54 54 53 54 53 53 53 53 53 52 52 52 53 58 58 58 58 58 58 58 56 52 51 43 35 33 28 31 33 37 33 49 56 54 52 50 48 46 45 42 39 36 37 30 28 27 31 40 39 38 37 37 39 38 36 34 31 28 25 30 49 49 51 57 59 58 57 58 57 57 57 59 61 61 61 60 60 61 61 61 61 62 62 62 62 62
53 53 54 54 54 54 54 54 53 53 52 52 52 53 56 57 46 52 52 54 44 42 37 44 42 34 23 28 36 36 39 39 24 35 44 47 50 43 42 45 42 37 33 30 31 29 28 34 36 39 40 39 38 38 38 32 32 30 31 29 29 27 32 33 50 48 58 57 55 57 56 56 56 57 60 61 61 60 60 61 61 62 61 62 62 62 62 63
54 54 54 54 54 54 53 53 53 52 52 50 49 50 44 34 28 35 43 47 35 29 32 31 44 45 43 37 31 32 35 19 22 16 41 39 43 38 41 43 38 35 30 26 29 30 31 34 38 39 39 39 38 39 38 32 33 32 32 31 30 29 28 29 29 26 56 56 55 56 56 55 57 57 59 60 61 61 60 60 61 61 62 62 61 61 62 63
54 54 54 54 54 53 53 53 52 52 51 50 48 38 30 31 24 21 28 27 34 39 34 33 35 31 27 35 37 27 18 17 14 16 30 43 35 35 36 36 31 28 31 31 29 37 36 36 38 39 38 38 38 36 34 32 33 33 32 32 30 30 27 29 28 27 50 52 50 55 56 56 57 58 58 60 60 59 59 59 60 61 61 61 62 62 62 63
54 54 54 54 53 53 53 53 52 51 50 48 45 33 34 37 36 31 28 23 27 27 29 30 29 27 29 32 37 25 21 12 12 18 28 30 29 21 23 34 34 25 35 35 38 35 34 35 38 40 40 39 37 35 33 34 32 32 34 32 31 30 28 27 30 32 42 52 47 54 53 53 54 57 58 59 59 60 60 60 60 60 61 61 61 61 62 62
54 54 54 54 53 53 52 52 51 51 49 46 39 37 38 40 40 40 30 26 25 27 26 26 23 25 24 26 24 30 19 12 9 15 24 22 20 17 24 32 34 34 35 35 31 35 35 37 38 40 40 39 36 35 33 33 33 33 32 34 31 29 26 22 23 40 47 46 39 48 46 45 51 57 58 59 59 60 60 60 60 61 60 60 60 60 61 61
54 54 54 53 53 52 52 51 50 48 47 44 41 38 40 41 40 30 27 27 23 29 25 25 24 24 24 18 18 22 14 10 14 15 42 20 16 19 27 31 33 35 34 35 36 35 35 38 39 39 39 38 37 34 35 35 35 32 32 33 32 30 30 29 25 25 35 41 49 47 39 38 45 47 53 57 59 59 60 60 60 61 61 61 61 60 61 60
54 54 54 53 52 52 50 50 45 44 46 45 42 42 42 44 45 35 28 29 24 21 28 23 29 27 22 16 14 10 9 10 10 14 26 21 23 25 26 31 32 32 33 34 37 37 37 35 37 38 37 37 37 35 35 35 34 33 32 32 32 31 31 27 27 26 24 20 29 40 32 35 47 50 50 54 58 58 60 60 60 60 61 61 60 60 60 60
54 54 54 53 52 51 50 43 42 45 45 37 39 42 43 43 43 40 30 24 13 16 21 17 16 18 14 11 11 12 11 12 14 18 40 33 38 22 24 25 29 28 32 33 32 34 34 32 34 35 36 35 36 35 34 34 33 32 30 32 32 31 30 30 29 27 23 22 39 43 29 26 41 41 50 55 56 57 59 59 59 60 60 60 60 60 60 59
54 54 53 52 52 50 43 38 45 46 38 37 40 43 43 43 48 35 31 19 15 16 16 15 11 11 14 10 11 12 8 13 15 18 19 23 23 20 25 21 19 25 33 32 32 30 30 28 31 32 33 33 32 34 32 33 31 29 31 31 31 30 29 29 28 27 27 23 24 45 34 32 33 41 52 54 55 57 58 59 59 59 60 59 60 59 60 60
54 53 52 52 51 50 46 48 44 39 37 39 44 43 44 47 43 37 29 14 15 22 10 11 11 16 12 12 12 7 10 11 15 16 19 20 26 16 17 20 23 24 25 29 24 26 28 22 29 29 30 29 29 31 32 32 30 29 29 30 30 30 30 29 27 26 22 21 26 34 44 37 39 44 54 55 54 56 57 58 59 60 60 60 60 59 59 59
53 53 52 52 50 50 50 49 45 37 40 45 45 45 44 44 35 31 28 14 16 14 15 11 16 12 12 11 13 13 10 15 15 17 19 20 20 16 12 16 16 15 17 27 21 16 14 17 17 28 27 25 28 26 30 32 28 30 28 27 27 26 27 26 26 23 24 24 22 34 41 31 29 45 50 54 51 46 46 50 57 59 60 60 60 60 59 60
53 52 52 51 49 50 49 49 47 44 48 47 46 46 43 37 33 26 17 11 15 8 12 13 13 10 12 10 14 16 17 17 19 20 18 18 20 19 18 19 14 14 15 14 13 13 13 24 25 14 14 14 14 14 27 30 28 28 27 26 24 24 25 26 24 26 25 23 25 21 39 30 27 40 42 43 46 50 53 52 53 58 59 59 60 60 60 60
52 51 51 51 48 47 47 41 39 45 47 49 48 40 37 35 29 20 13 14 16 12 13 13 11 14 11 12 14 17 17 18 18 18 16 19 18 20 20 18 20 15 14 13 12 14 13 13 13 15 22 16 15 13 14 22 25 26 24 23 23 26 27 28 25 28 24 22 25 19 30 37 23 40 39 46 54 55 55 54 55 54 57 59 60 59 60 60
51 50 50 50 49 49 40 38 40 46 50 49 44 38 32 18 23 17 13 20 10 11 11 14 12 16 17 17 17 16 16 17 18 17 16 17 18 18 19 19 20 17 12 15 14 15 11 12 14 14 32 16 15 13 14 18 23 25 24 23 20 25 25 23 24 21 21 20 22 19 35 36 38 40 40 49 54 54 55 55 55 55 55 57 59 60 60 60
50 49 49 50 52 49 48 47 49 51 51 46 41 37 26 22 16 22 17 14 11 14 14 14 11 11 14 15 14 17 18 16 18 17 18 17 17 17 18 19 19 17 16 15 12 11 10 14 14 14 14 18 16 12 14 15 18 22 21 24 24 22 21 21 23 26 22 21 20 19 39 34 38 39 45 51 53 54 55 56 56 56 56 58 58 59 59 60
49 50 51 50 51 50 50 54 52 50 48 44 34 24 22 16 15 27 17 14 12 17 14 12 13 13 13 12 12 12 15 17 17 17 18 18 17 17 18 18 19 17 17 14 11 13 11 10 11 14 11 15 16 15 14 14 15 19 19 22 24 25 20 21 20 18 16 19 20 30 31 35 33 37 43 51 53 52 53 55 57 57 57 57 58 58 59 59
49 50 52 52 52 52 52 51 52 51 45 29 22 22 18 18 21 15 15 16 17 15 12 13 13 13 14 14 15 15 17 15 17 18 18 17 16 18 18 17 20 20 18 15 16 18 14 12 12 15 16 16 14 16 18 14 14 16 16 21 22 22 27 18 22 19 19 18 21 32 25 26 36 42 46 49 52 51 51 53 56 57 57 57 57 57 58 59
51 52 51 50 50 41 52 52 51 50 35 26 22 21 14 16 15 15 15 20 17 12 12 12 13 13 14 14 17 16 17 17 16 18 17 18 19 18 19 19 19 21 18 15 18 14 20 11 13 16 19 14 15 18 17 18 18 17 18 19 20 21 21 29 27 23 21 21 20 28 24 30 32 31 44 50 52 51 50 51 53 55 56 57 57 57 58 59
52 51 43 46 39 41 53 51 51 43 35 24 22 18 19 19 17 16 23 16 15 14 14 10 12 12 13 14 17 18 16 17 17 17 17 18 17 20 20 20 21 22 21 20 17 19 15 11 14 14 9 13 16 17 17 17 18 17 18 18 21 22 22 27 18 26 19 11 24 28 28 34 28 28 44 49 50 50 49 49 51 54 56 57 57 57 59 59
50 50 51 41 35 42 52 51 43 35 31 25 23 28 24 18 20 18 19 18 15 14 13 14 14 15 15 16 15 18 17 15 16 18 16 18 16 21 21 20 21 22 22 22 18 19 19 11 11 15 13 13 17 16 15 17 16 16 16 18 18 20 21 29 27 18 16 14 26 29 29 33 35 39 43 47 49 50 50 50 50 51 53 55 56 57 58 59
50 38 32 30 35 39 48 48 34 35 26 24 26 23 20 19 21 21 22 20 17 15 14 15 15 18 16 16 18 19 19 14 17 18 18 18 17 22 25 23 21 23 23 22 18 23 21 12 11 14 13 12 16 15 16 14 15 15 17 14 15 22 30 27 27 27 27 22 24 27 28 27 32 35 43 49 50 51 51 51 50 50 51 53 55 57 58 59
43 39 26 31 36 40 44 44 27 30 25 20 22 19 22 18 20 22 23 24 21 17 16 17 19 18 19 18 17 18 21 20 19 19 19 20 18 24 26 26 23 23 23 24 24 24 17 25 11 9 15 14 14 16 13 15 14 13 15 16 17 19 20 24 24 26 24 25 25 28 26 28 28 35 45 49 50 51 52 51 51 50 51 51 53 55 57 59
43 35 32 35 38 41 36 28 27 24 24 24 22 24 27 20 21 23 24 24 24 25 21 21 19 17 17 19 19 21 21 22 22 21 20 22 23 23 27 27 27 23 24 23 20 26 21 16 13 14 14 15 14 17 17 15 16 14 13 13 12 15 23 21 24 21 24 27 26 27 25 26 26 38 46 50 50 50 52 52 51 50 50 51 51 53 56 58
41 29 28 34 39 34 28 24 26 30 24 22 20 23 28 34 22 23 24 25 24 24 25 25 25 24 23 21 21 23 23 23 23 23 24 24 26 25 26 28 29 25 23 19 19 27 22 25 19 15 15 15 16 18 21 19 16 17 17 15 14 13 17 25 21 24 24 25 26 31 27 26 30 42 49 50 51 51 51 51 51 51 52 52 51 51 54 56
40 29 36 41 39 29 25 25 31 28 22 20 22 23 23 23 23 23 23 25 22 25 25 25 25 24 25 23 24 23 25 24 25 23 24 25 25 26 29 29 30 30 25 25 25 23 38 23 19 17 20 17 17 18 21 19 18 16 16 18 17 15 14 15 21 26 25 23 26 28 29 25 30 44 50 50 51 50 51 51 51 51 52 52 52 51 53 55
46 38 36 39 38 31 26 24 24 24 24 25 25 23 24 24 24 23 23 25 25 23 24 25 25 27 27 28 26 23 26 22 26 25 24 28 24 28 27 30 29 26 29 22 26 22 19 24 24 19 19 18 17 18 15 17 18 16 15 18 19 18 17 16 25 31 25 22 18 27 27 27 28 46 50 50 50 49 50 50 50 51 52 52 53 54 53 54
44 41 46 43 38 32 24 27 27 25 25 25 25 24 23 23 25 24 24 24 25 25 25 25 27 27 27 28 27 27 28 26 25 27 25 27 24 30 26 28 32 28 32 37 37 26 26 25 25 13 14 13 13 13 15 17 18 17 19 18 18 18 19 22 21 28 25 29 27 25 25 26 31 46 48 49 49 50 50 50 50 51 52 52 53 54 54 54
35 30 34 31 36 33 34 35 29 27 29 30 26 26 26 23 24 25 25 24 26 26 27 25 25 26 28 27 27 27 26 28 26 26 28 25 26 26 28 27 27 33 33 41 36 30 27 29 27 25 21 18 22 24 21 28 18 15 18 18 17 18 18 21 24 24 23 25 24 27 25 22 30 45 45 47 48 48 48 49 49 50 51 52 53 55 54 54
41 37 38 36 37 31 30 32 32 31 27 31 30 27 25 26 26 23 26 24 26 25 27 29 28 24 27 27 27 26 29 25 28 28 29 25 27 26 30 28 25 33 40 30 36 27 31 23 26 29 25 22 22 22 21 21 19 20 18 17 17 18 20 19 19 20 27 22 21 30 34 23 33 43 45 47 48 48 48 49 49 50 51 51 52 54 56 54
35 37 40 40 27 30 31 29 33 32 33 32 32 30 27 26 26 26 24 26 26 28 22 30 31 31 28 27 30 26 29 29 30 26 29 29 26 25 22 24 24 34 31 24 30 26 25 19 23 22 22 22 22 22 21 20 20 20 18 18 16 19 19 17 21 20 23 21 22 28 33 34 42 43 46 48 49 48 49 49 49 50 50 52 53 52 52 53
42 42 40 42 30 32 32 34 33 33 34 37 35 30 28 27 25 27 25 24 26 27 29 26 29 31 32 34 31 30 35 25 26 32 30 27 28 28 24 25 23 26 25 24 28 35 27 21 24 23 23 22 23 23 22 19 19 17 16 17 16 17 18 19 18 19 19 24 24 30 38 41 44 45 47 48 49 49 49 51 50 49 49 51 51 51 51 52
42 38 34 39 41 41 39 34 34 32 30 37 30 31 31 30 26 27 28 27 26 27 30 30 30 31 32 31 35 29 30 31 29 26 31 29 27 31 26 28 24 24 25 25 27 33 28 31 23 23 22 22 23 23 22 21 21 17 15 17 17 17 17 19 19 23 28 26 38 41 40 42 45 46 47 49 49 48 48 50 49 50 49 49 50 50 51 52
46 47 48 43 34 38 42 35 34 35 30 33 31 33 31 29 30 31 29 29 28 29 29 28 29 30 32 30 30 30 32 33 31 28 31 28 23 30 26 28 26 26 28 26 29 31 27 27 27 24 17 19 21 22 21 22 21 18 20 21 18 16 18 20 20 24 29 33 40 37 38 41 45 45 46 47 48 48 48 49 50 50 49 49 50 49 50 52
49 48 47 45 37 40 33 34 34 33 29 33 34 35 32 29 32 32 30 31 33 34 33 29 33 30 33 32 32 32 32 31 31 30 31 28 28 29 27 26 26 27 27 26 35 26 29 25 22 23 15 18 23 24 23 22 15 10 17 20 24 23 24 22 24 34 41 42 35 29 35 44 46 46 44 44 45 47 47 48 50 50 51 49 51 51 51 50